Change the Weather History Date:

Wednesday, October 12, 2011

  Actual Average Record
Temperature  
Mean Temperature 57 °F -  
Max Temperature 69 °F 54 °F 78 °F (1996)
Min Temperature 46 °F 33 °F 20 °F (2012)
Degree Days  
Heating Degree Days 8    
Growing Degree Days 7 (Base 50)    
Moisture  
Dew Point 53 °F    
Average Humidity 91    
Maximum Humidity 100    
Minimum Humidity 60    
Precipitation  
Precipitation 0.01 in - - ()
Sea Level Pressure  
Sea Level Pressure 29.69 in    
Wind  
Wind Speed 6 mph (NNW)    
Max Wind Speed 13 mph    
Max Gust Speed 18 mph    
Visibility 8 miles    
Events Fog , Rain , Thunderstorm    
Averages and records for this station are not official NWS values.
T = Trace of Precipitation, MM = Missing Value Source: NWS Daily Summary

Daily Weather History Graph

Daily Weather History Graph

Search for Another Location

Airport or City:

Trip Planner

Search our weather history database for the weather conditions in past years. The results will help you decide how hot, cold, wet, or windy it might be!

Date:

Astronomy

Oct. 12, 2011 Rise Set
Actual Time 7:44 AM CDT 6:47 PM CDT
Civil Twilight 7:12 AM CDT 7:18 PM CDT
Nautical Twilight 6:37 AM CDT 7:54 PM CDT
Astronomical Twilight 6:01 AM CDT 8:30 PM CDT
Moon 6:40 PM CDT (10/12) 8:27 AM CDT (10/12)
Length of Visible Light 12h 05m
Length of Day
11h 03m
Full, 100% of the Moon is Illuminated
Oct 12
Full
Oct 19
Last Quarter
Oct 26
New
Nov 2
First Quarter
Nov 10
Full

Hourly Weather History & Observations

Time (CDT) Temp. Dew Point Humidity Pressure Visibility Wind Dir Wind Speed Gust Speed Precip Events Conditions
12:00 AM 59.0 °F 57.2 °F 94% 29.69 in 10.0 mi South 9.2 mph - N/A   Overcast
12:55 AM 56.1 °F 56.1 °F 100% 29.68 in 10.0 mi NW 4.6 mph - 0.00 in   Mostly Cloudy
1:43 AM 55.4 °F 55.4 °F 100% 29.68 in 10.0 mi South 3.5 mph - N/A   Light Drizzle
1:55 AM 56.1 °F 56.1 °F 100% 29.67 in 10.0 mi ESE 10.4 mph - 0.00 in Rain Light Rain
2:00 AM 57.2 °F 57.2 °F 100% 29.68 in 10.0 mi ESE 8.1 mph - N/A   Mostly Cloudy
2:04 AM 57.2 °F 57.2 °F 100% 29.68 in 10.0 mi ESE 3.5 mph - N/A   Light Drizzle
2:25 AM 57.2 °F 57.2 °F 100% 29.67 in 10.0 mi ESE 6.9 mph - N/A   Scattered Clouds
2:55 AM 57.0 °F 57.0 °F 100% 29.65 in 10.0 mi SE 8.1 mph - 0.00 in   Scattered Clouds
3:31 AM 55.4 °F 55.4 °F 100% 29.66 in 10.0 mi SSE 3.5 mph - N/A   Light Drizzle
3:43 AM 55.4 °F 55.4 °F 100% 29.67 in 10.0 mi South 4.6 mph - N/A   Overcast
3:55 AM 55.2 °F 55.2 °F 100% 29.67 in 10.0 mi SSE 5.8 mph - 0.00 in   Overcast
4:55 AM 55.0 °F 55.0 °F 100% 29.67 in 10.0 mi SSE 6.9 mph - N/A   Partly Cloudy
5:55 AM 53.2 °F 53.2 °F 100% 29.67 in 10.0 mi South 4.6 mph - N/A   Scattered Clouds
6:55 AM 51.8 °F 51.8 °F 100% 29.66 in 10.0 mi Calm Calm - N/A   Clear
7:10 AM 51.8 °F 51.8 °F 100% 29.66 in 6.0 mi Calm Calm - N/A   Clear
7:19 AM 50.0 °F 50.0 °F 100% 29.67 in 2.5 mi East 3.5 mph - N/A   Clear
7:23 AM 50.0 °F 50.0 °F 100% 29.66 in 1.0 mi East 3.5 mph - N/A   Clear
7:25 AM 50.0 °F 50.0 °F 100% 29.66 in 0.8 mi Calm Calm - N/A   Clear
7:31 AM 50.0 °F 50.0 °F 100% 29.66 in 1.0 mi Calm Calm - N/A   Clear
7:33 AM 50.0 °F 50.0 °F 100% 29.66 in 1.2 mi Calm Calm - N/A   Clear
7:36 AM 50.0 °F 50.0 °F 100% 29.66 in 7.0 mi Calm Calm - N/A Fog Shallow Fog
7:55 AM 50.0 °F 50.0 °F 100% 29.66 in 0.2 mi Calm Calm - N/A Fog Fog
8:08 AM 46.4 °F 46.4 °F 100% 29.66 in 0.5 mi Calm Calm - N/A Fog Fog
8:15 AM 46.4 °F 46.4 °F 100% 29.66 in 7.0 mi Calm Calm - N/A Fog Shallow Fog
8:55 AM 49.3 °F 49.3 °F 100% 29.67 in 10.0 mi Calm Calm - N/A   Clear
9:55 AM 54.0 °F 54.0 °F 100% 29.68 in 10.0 mi Calm Calm - N/A   Clear
10:55 AM 58.5 °F 58.1 °F 99% 29.69 in 10.0 mi West 4.6 mph - N/A   Clear
11:55 AM 60.1 °F 54.7 °F 82% 29.68 in 10.0 mi WSW 5.8 mph - N/A   Clear
12:55 PM 64.6 °F 55.0 °F 71% 29.68 in 10.0 mi Variable 6.9 mph - N/A   Partly Cloudy
1:55 PM 66.9 °F 55.9 °F 68% 29.67 in 10.0 mi North 10.4 mph - N/A   Partly Cloudy
2:55 PM 66.7 °F 55.9 °F 68% 29.67 in 10.0 mi WNW 9.2 mph - N/A   Overcast
3:55 PM 66.2 °F 55.0 °F 67% 29.67 in 10.0 mi NW 9.2 mph - N/A   Clear
4:55 PM 68.5 °F 54.9 °F 62% 29.67 in 10.0 mi WNW 11.5 mph - N/A   Partly Cloudy
5:10 PM 68.0 °F 53.6 °F 60% 29.68 in 10.0 mi NW 11.5 mph - N/A Rain Light Rain
5:22 PM 68.0 °F 53.6 °F 60% 29.68 in 10.0 mi North 9.2 mph - N/A   Scattered Clouds
5:55 PM 66.6 °F 55.0 °F 66% 29.68 in 10.0 mi NNW 4.6 mph - 0.00 in   Scattered Clouds
6:21 PM 66.2 °F 53.6 °F 64% 29.69 in 10.0 mi North 12.7 mph 18.4 mph N/A Thunderstorm Thunderstorm
6:55 PM 61.0 °F 51.6 °F 71% 29.71 in 10.0 mi North 11.5 mph - N/A Thunderstorm Thunderstorm
6:56 PM 60.8 °F 51.8 °F 72% 29.72 in 10.0 mi North 11.5 mph - N/A Rain , Thunderstorm Light Rain
7:17 PM 59.0 °F 55.4 °F 88% 29.73 in 10.0 mi North 5.8 mph - N/A   Mostly Cloudy
7:24 PM 59.0 °F 55.4 °F 88% 29.73 in 10.0 mi North 5.8 mph - N/A Rain Light Rain
7:43 PM 57.2 °F 57.2 °F 100% 29.73 in 10.0 mi WNW 4.6 mph - N/A   Mostly Cloudy
7:55 PM 55.9 °F 55.9 °F 100% 29.73 in 10.0 mi NW 5.8 mph - 0.01 in   Scattered Clouds
8:55 PM 55.4 °F 53.2 °F 92% 29.75 in 10.0 mi NNW 10.4 mph - N/A   Clear
9:55 PM 52.5 °F 52.5 °F 100% 29.75 in 10.0 mi NNW 9.2 mph - N/A   Partly Cloudy
10:55 PM 51.1 °F 51.1 °F 100% 29.76 in 10.0 mi NW 8.1 mph - N/A   Scattered Clouds
10:57 PM 51.8 °F 51.8 °F 100% 29.76 in 10.0 mi NW 8.1 mph - N/A   Mostly Cloudy
11:24 PM 50.0 °F 50.0 °F 100% 29.75 in 10.0 mi NNW 10.4 mph - N/A   Scattered Clouds
11:37 PM 50.0 °F 50.0 °F 100% 29.76 in 10.0 mi NW 10.4 mph - N/A   Mostly Cloudy
11:55 PM 51.4 °F 51.4 °F 100% 29.76 in 10.0 mi NW 10.4 mph - N/A   Mostly Cloudy